Time,TemperatureF,DewpointF,PressureIn,WindDirection,WindDirectionDegrees,WindSpeedMPH,WindSpeedGustMPH,Humidity,HourlyPrecipIn,Conditions,Clouds,dailyrainin,SoftwareType,DateUTC
2013-02-15 00:00:00,22.6,18.5,29.96,ESE,102,0.0,0.0,84,0.00,OVC,,0.00,WeatherDisplay:10.37,2013-02-15 05:00:00,
2013-02-15 00:01:00,22.6,18.5,29.96,ESE,102,0.0,0.0,84,0.00,OVC,,0.00,WeatherDisplay:10.37,2013-02-15 05:01:00,
2013-02-15 00:06:00,22.7,18.6,29.96,ESE,102,0.0,0.0,84,0.00,OVC,,0.00,WeatherDisplay:10.37,2013-02-15 05:06:00,
2013-02-15 00:11:00,22.7,19.7,29.96,ESE,102,0.0,0.0,88,0.00,OVC,,0.00,WeatherDisplay:10.37,2013-02-15 05:11:00,
2013-02-15 00:16:00,22.8,19.8,29.96,ESE,102,0.0,0.0,88,0.00,OVC,,0.00,WeatherDisplay:10.37,2013-02-15 05:16:00,
2013-02-15 00:21:00,22.7,19.7,29.96,ESE,102,0.0,0.0,88,0.00,OVC,,0.00,WeatherDisplay:10.37,2013-02-15 05:21:00,
2013-02-15 00:26:00,22.3,19.3,29.96,ESE,102,0.0,0.0,88,0.00,OVC,,0.00,WeatherDisplay:10.37,2013-02-15 05:26:00,
2013-02-15 00:32:00,22.4,19.4,29.96,ESE,102,0.0,0.0,88,0.00,OVC,,0.00,WeatherDisplay:10.37,2013-02-15 05:32:00,
2013-02-15 00:37:00,22.1,19.1,29.96,ESE,102,0.0,0.0,88,0.00,OVC,,0.00,WeatherDisplay:10.37,2013-02-15 05:37:00,
2013-02-15 00:42:00,22.1,19.1,29.96,ESE,102,0.0,0.0,88,0.00,OVC,,0.00,WeatherDisplay:10.37,2013-02-15 05:42:00,
2013-02-15 00:47:00,22.0,19.0,29.96,ESE,102,0.0,0.0,88,0.00,OVC,,0.00,WeatherDisplay:10.37,2013-02-15 05:47:00,
2013-02-15 00:52:00,22.1,19.1,29.96,ESE,102,0.0,0.0,88,0.00,OVC,,0.00,WeatherDisplay:10.37,2013-02-15 05:52:00,
2013-02-15 00:57:00,21.8,18.8,29.96,ESE,102,0.0,0.0,88,0.00,OVC,,0.00,WeatherDisplay:10.37,2013-02-15 05:57:00,
2013-02-15 01:02:00,21.4,18.4,29.96,ESE,102,0.0,0.0,88,0.00,OVC,,0.00,WeatherDisplay:10.37,2013-02-15 06:02:00,
2013-02-15 01:07:00,21.3,18.3,29.96,ESE,102,0.0,0.0,88,0.00,OVC,,0.00,WeatherDisplay:10.37,2013-02-15 06:07:00,
2013-02-15 01:12:00,20.9,17.6,29.96,ESE,102,0.0,0.0,87,0.00,CLR,,0.00,WeatherDisplay:10.37,2013-02-15 06:12:00,
2013-02-15 01:17:00,20.9,17.6,29.96,ESE,102,0.0,0.0,87,0.00,CLR,,0.00,WeatherDisplay:10.37,2013-02-15 06:17:00,
2013-02-15 01:22:00,20.6,17.3,29.96,ESE,102,0.0,0.0,87,0.00,CLR,,0.00,WeatherDisplay:10.37,2013-02-15 06:22:00,
2013-02-15 01:27:00,20.0,16.8,29.96,ESE,102,0.0,0.0,87,0.00,CLR,,0.00,WeatherDisplay:10.37,2013-02-15 06:27:00,
2013-02-15 01:32:00,20.3,17.0,29.96,ESE,102,0.0,0.0,87,0.00,CLR,,0.00,WeatherDisplay:10.37,2013-02-15 06:32:00,
2013-02-15 01:37:00,20.4,17.1,29.96,ESE,102,0.0,0.0,87,0.00,CLR,,0.00,WeatherDisplay:10.37,2013-02-15 06:37:00,
2013-02-15 01:42:00,20.3,17.0,29.96,ESE,102,0.0,0.0,87,0.00,CLR,,0.00,WeatherDisplay:10.37,2013-02-15 06:42:00,
2013-02-15 01:47:00,19.7,16.5,29.96,ESE,102,0.0,0.0,87,0.00,CLR,,0.00,WeatherDisplay:10.37,2013-02-15 06:47:00,
2013-02-15 01:52:00,19.4,16.2,29.96,ESE,102,0.0,0.0,87,0.00,CLR,,0.00,WeatherDisplay:10.37,2013-02-15 06:52:00,
2013-02-15 01:57:00,19.6,16.4,29.96,ESE,102,0.0,0.0,87,0.00,CLR,,0.00,WeatherDisplay:10.37,2013-02-15 06:57:00,
2013-02-15 02:02:00,19.2,16.0,29.96,ESE,102,0.0,0.0,87,0.00,CLR,,0.00,WeatherDisplay:10.37,2013-02-15 07:02:00,
2013-02-15 02:07:00,18.8,15.6,29.96,ESE,102,0.0,0.0,87,0.00,CLR,,0.00,WeatherDisplay:10.37,2013-02-15 07:07:00,
2013-02-15 02:12:00,18.8,16.6,29.96,ESE,102,0.0,0.0,91,0.00,CLR,,0.00,WeatherDisplay:10.37,2013-02-15 07:12:00,
2013-02-15 02:17:00,18.6,16.4,29.96,ESE,102,0.0,0.0,91,0.00,CLR,,0.00,WeatherDisplay:10.37,2013-02-15 07:17:00,
2013-02-15 02:22:00,18.7,16.5,29.96,ESE,102,0.0,0.0,91,0.00,CLR,,0.00,WeatherDisplay:10.37,2013-02-15 07:22:00,
2013-02-15 02:27:00,18.5,16.3,29.96,ESE,102,0.0,0.0,91,0.00,CLR,,0.00,WeatherDisplay:10.37,2013-02-15 07:27:00,
2013-02-15 02:32:00,18.5,16.3,29.96,ESE,102,0.0,0.0,91,0.00,CLR,,0.00,WeatherDisplay:10.37,2013-02-15 07:32:00,
2013-02-15 02:37:00,17.9,15.7,29.96,ESE,102,0.0,0.0,91,0.00,CLR,,0.00,WeatherDisplay:10.37,2013-02-15 07:37:00,
2013-02-15 02:42:00,18.2,16.0,29.96,ESE,102,0.0,0.0,91,0.00,CLR,,0.00,WeatherDisplay:10.37,2013-02-15 07:42:00,
2013-02-15 02:47:00,18.5,16.3,29.96,ESE,102,0.0,0.0,91,0.00,CLR,,0.00,WeatherDisplay:10.37,2013-02-15 07:47:00,
2013-02-15 02:52:00,18.4,16.2,29.96,ESE,102,0.0,0.0,91,0.00,CLR,,0.00,WeatherDisplay:10.37,2013-02-15 07:52:00,
2013-02-15 02:57:00,18.0,15.8,29.96,ESE,102,0.0,0.0,91,0.00,CLR,,0.00,WeatherDisplay:10.37,2013-02-15 07:57:00,
2013-02-15 03:02:00,17.8,15.6,29.96,ESE,102,0.0,0.0,91,0.00,CLR,,0.00,WeatherDisplay:10.37,2013-02-15 08:02:00,
2013-02-15 03:07:00,17.7,15.5,29.96,ESE,102,0.0,0.0,91,0.00,CLR,,0.00,WeatherDisplay:10.37,2013-02-15 08:07:00,
2013-02-15 03:12:00,17.6,16.4,29.95,ESE,102,0.0,0.0,95,0.00,CLR,,0.00,WeatherDisplay:10.37,2013-02-15 08:12:00,
2013-02-15 03:17:00,17.5,16.3,29.95,ESE,102,0.0,0.0,95,0.00,CLR,,0.00,WeatherDisplay:10.37,2013-02-15 08:17:00,
2013-02-15 03:22:00,17.0,15.8,29.95,ESE,102,0.0,0.0,95,0.00,CLR,,0.00,WeatherDisplay:10.37,2013-02-15 08:22:00,
2013-02-15 03:27:00,16.8,15.6,29.95,ESE,102,0.0,0.0,95,0.00,CLR,,0.00,WeatherDisplay:10.37,2013-02-15 08:27:00,
2013-02-15 03:32:00,16.8,15.6,29.95,ESE,102,0.0,0.0,95,0.00,CLR,,0.00,WeatherDisplay:10.37,2013-02-15 08:32:00,
2013-02-15 03:37:00,16.9,15.7,29.95,ESE,102,0.0,0.0,95,0.00,CLR,,0.00,WeatherDisplay:10.37,2013-02-15 08:37:00,
2013-02-15 03:42:00,17.1,15.9,29.95,ESE,102,0.0,0.0,95,0.00,CLR,,0.00,WeatherDisplay:10.37,2013-02-15 08:42:00,
2013-02-15 03:47:00,17.2,16.0,29.95,ESE,102,0.0,0.0,95,0.00,CLR,,0.00,WeatherDisplay:10.37,2013-02-15 08:47:00,
2013-02-15 03:52:00,17.4,16.2,29.95,ESE,102,0.0,0.0,95,0.00,CLR,,0.00,WeatherDisplay:10.37,2013-02-15 08:52:00,
2013-02-15 03:57:00,17.7,16.5,29.95,ESE,102,0.0,0.0,95,0.00,CLR,,0.00,WeatherDisplay:10.37,2013-02-15 08:57:00,
2013-02-15 04:02:00,17.7,16.5,29.95,ESE,102,0.0,0.0,95,0.00,CLR,,0.00,WeatherDisplay:10.37,2013-02-15 09:02:00,
2013-02-15 04:07:00,17.7,16.5,29.95,ESE,102,0.0,0.0,95,0.00,CLR,,0.00,WeatherDisplay:10.37,2013-02-15 09:07:00,
2013-02-15 04:12:00,17.7,15.5,29.95,ESE,102,0.0,0.0,91,0.00,BKN,,0.00,WeatherDisplay:10.37,2013-02-15 09:12:00,
2013-02-15 04:17:00,17.7,15.5,29.95,ESE,102,0.0,0.0,91,0.00,BKN,,0.00,WeatherDisplay:10.37,2013-02-15 09:17:00,
2013-02-15 04:22:00,17.9,15.7,29.95,ESE,102,0.0,0.0,91,0.00,BKN,,0.00,WeatherDisplay:10.37,2013-02-15 09:22:00,
2013-02-15 04:27:00,18.2,16.0,29.95,ESE,102,0.0,0.0,91,0.00,BKN,,0.00,WeatherDisplay:10.37,2013-02-15 09:27:00,
2013-02-15 04:32:00,18.2,16.0,29.95,ESE,102,0.0,0.0,91,0.00,BKN,,0.00,WeatherDisplay:10.37,2013-02-15 09:32:00,
2013-02-15 04:37:00,17.7,15.5,29.95,ESE,102,0.0,0.0,91,0.00,BKN,,0.00,WeatherDisplay:10.37,2013-02-15 09:37:00,
2013-02-15 04:42:00,18.5,16.3,29.95,ESE,102,0.0,0.0,91,0.00,BKN,,0.00,WeatherDisplay:10.37,2013-02-15 09:42:00,
2013-02-15 04:47:00,18.8,16.6,29.95,ESE,102,0.0,0.0,91,0.00,BKN,,0.00,WeatherDisplay:10.37,2013-02-15 09:47:00,
2013-02-15 04:52:00,18.7,16.5,29.95,ESE,102,0.0,0.0,91,0.00,BKN,,0.00,WeatherDisplay:10.37,2013-02-15 09:52:00,
2013-02-15 04:57:00,18.5,16.3,29.95,ESE,102,0.0,0.0,91,0.00,BKN,,0.00,WeatherDisplay:10.37,2013-02-15 09:57:00,
2013-02-15 05:02:00,18.7,16.5,29.95,ESE,102,0.0,0.0,91,0.00,BKN,,0.00,WeatherDisplay:10.37,2013-02-15 10:02:00,
2013-02-15 05:07:00,18.7,16.5,29.95,ESE,102,0.0,0.0,91,0.00,BKN,,0.00,WeatherDisplay:10.37,2013-02-15 10:07:00,
2013-02-15 05:12:00,18.9,17.7,29.96,ESE,102,0.0,0.0,95,0.00,OVC,,0.00,WeatherDisplay:10.37,2013-02-15 10:12:00,
2013-02-15 05:17:00,18.9,17.7,29.96,ESE,102,0.0,0.0,95,0.00,OVC,,0.00,WeatherDisplay:10.37,2013-02-15 10:17:00,
2013-02-15 05:22:00,19.0,17.8,29.96,ESE,102,0.0,0.0,95,0.00,OVC,,0.00,WeatherDisplay:10.37,2013-02-15 10:22:00,
2013-02-15 05:27:00,19.1,17.9,29.96,ESE,102,0.0,0.0,95,0.00,OVC,,0.00,WeatherDisplay:10.37,2013-02-15 10:27:00,
2013-02-15 05:32:00,18.8,17.6,29.96,ESE,102,0.0,0.0,95,0.00,OVC,,0.00,WeatherDisplay:10.37,2013-02-15 10:32:00,
2013-02-15 05:37:00,19.2,18.0,29.96,ESE,102,0.0,0.0,95,0.00,OVC,,0.00,WeatherDisplay:10.37,2013-02-15 10:37:00,
2013-02-15 05:42:00,19.0,17.8,29.96,ESE,102,0.0,0.0,95,0.00,OVC,,0.00,WeatherDisplay:10.37,2013-02-15 10:42:00,
2013-02-15 05:47:00,19.1,17.9,29.96,ESE,102,0.0,0.0,95,0.00,OVC,,0.00,WeatherDisplay:10.37,2013-02-15 10:47:00,
2013-02-15 05:52:00,19.2,18.0,29.96,ESE,102,0.0,0.0,95,0.00,OVC,,0.00,WeatherDisplay:10.37,2013-02-15 10:52:00,
2013-02-15 05:57:00,19.3,18.1,29.96,ESE,102,0.0,0.0,95,0.00,OVC,,0.00,WeatherDisplay:10.37,2013-02-15 10:57:00,
2013-02-15 06:02:00,19.8,17.6,29.94,ESE,102,0.0,0.0,91,0.00,OVC,,0.00,WeatherDisplay:10.37,2013-02-15 11:02:00,
2013-02-15 06:07:00,19.7,17.5,29.94,ESE,102,0.0,0.0,91,0.00,OVC,,0.00,WeatherDisplay:10.37,2013-02-15 11:07:00,
2013-02-15 06:12:00,19.4,17.2,29.94,ESE,102,0.0,0.0,91,0.00,OVC,,0.00,WeatherDisplay:10.37,2013-02-15 11:12:00,
2013-02-15 06:17:00,19.5,17.3,29.94,ESE,102,0.0,0.0,91,0.00,OVC,,0.00,WeatherDisplay:10.37,2013-02-15 11:17:00,
2013-02-15 06:22:00,19.6,17.4,29.94,ESE,102,0.0,0.0,91,0.00,OVC,,0.00,WeatherDisplay:10.37,2013-02-15 11:22:00,
2013-02-15 06:27:00,18.8,16.6,29.94,ESE,102,0.0,0.0,91,0.00,OVC,,0.00,WeatherDisplay:10.37,2013-02-15 11:27:00,
2013-02-15 06:32:00,18.6,16.4,29.94,ESE,102,0.0,0.0,91,0.00,OVC,,0.00,WeatherDisplay:10.37,2013-02-15 11:32:00,
2013-02-15 06:37:00,18.8,16.6,29.94,ESE,102,0.0,0.0,91,0.00,OVC,,0.00,WeatherDisplay:10.37,2013-02-15 11:37:00,
2013-02-15 06:42:00,18.7,16.5,29.94,ESE,102,0.0,0.0,91,0.00,OVC,,0.00,WeatherDisplay:10.37,2013-02-15 11:42:00,
2013-02-15 06:47:00,18.6,16.4,29.94,ESE,102,0.0,0.0,91,0.00,OVC,,0.00,WeatherDisplay:10.37,2013-02-15 11:47:00,
2013-02-15 06:52:00,18.3,16.1,29.94,ESE,102,0.0,0.0,91,0.00,OVC,,0.00,WeatherDisplay:10.37,2013-02-15 11:52:00,
2013-02-15 06:57:00,18.6,16.4,29.94,ESE,102,0.0,0.0,91,0.00,OVC,,0.00,WeatherDisplay:10.37,2013-02-15 11:57:00,
2013-02-15 07:02:00,18.5,16.3,29.95,ESE,102,0.0,0.0,91,0.00,SCT,,0.00,WeatherDisplay:10.37,2013-02-15 12:02:00,
2013-02-15 07:07:00,18.4,16.2,29.95,ESE,102,0.0,0.0,91,0.00,SCT,,0.00,WeatherDisplay:10.37,2013-02-15 12:07:00,
2013-02-15 07:12:00,18.7,16.5,29.95,ESE,102,0.0,0.0,91,0.00,SCT,,0.00,WeatherDisplay:10.37,2013-02-15 12:12:00,
2013-02-15 07:17:00,18.7,16.5,29.95,ESE,102,0.0,0.0,91,0.00,SCT,,0.00,WeatherDisplay:10.37,2013-02-15 12:17:00,
2013-02-15 07:22:00,18.6,16.4,29.95,ESE,102,0.0,0.0,91,0.00,SCT,,0.00,WeatherDisplay:10.37,2013-02-15 12:22:00,
2013-02-15 07:27:00,18.7,16.5,29.95,ESE,102,0.0,0.0,91,0.00,SCT,,0.00,WeatherDisplay:10.37,2013-02-15 12:27:00,
2013-02-15 07:32:00,19.0,16.8,29.95,ESE,102,0.0,0.0,91,0.00,SCT,,0.00,WeatherDisplay:10.37,2013-02-15 12:32:00,
2013-02-15 07:37:00,20.0,17.8,29.95,ESE,102,0.0,0.0,91,0.00,SCT,,0.00,WeatherDisplay:10.37,2013-02-15 12:37:00,
2013-02-15 07:42:00,20.2,18.0,29.95,ESE,102,0.0,0.0,91,0.00,SCT,,0.00,WeatherDisplay:10.37,2013-02-15 12:42:00,
2013-02-15 07:47:00,20.1,17.9,29.95,ESE,102,0.0,0.0,91,0.00,SCT,,0.00,WeatherDisplay:10.37,2013-02-15 12:47:00,
2013-02-15 07:52:00,20.4,18.2,29.95,ESE,102,0.0,0.0,91,0.00,SCT,,0.00,WeatherDisplay:10.37,2013-02-15 12:52:00,
2013-02-15 07:57:00,20.7,18.5,29.95,ESE,102,0.0,0.0,91,0.00,SCT,,0.00,WeatherDisplay:10.37,2013-02-15 12:57:00,
2013-02-15 08:02:00,20.6,17.3,29.95,ESE,102,0.0,0.0,87,0.00,SCT,,0.00,WeatherDisplay:10.37,2013-02-15 13:02:00,
2013-02-15 08:07:00,20.1,16.9,29.95,ESE,102,0.0,0.0,87,0.00,SCT,,0.00,WeatherDisplay:10.37,2013-02-15 13:07:00,
2013-02-15 08:12:00,20.9,17.6,29.95,ESE,102,0.0,0.0,87,0.00,SCT,,0.00,WeatherDisplay:10.37,2013-02-15 13:12:00,
2013-02-15 08:17:00,21.6,18.3,29.95,ESE,102,0.0,0.0,87,0.00,SCT,,0.00,WeatherDisplay:10.37,2013-02-15 13:17:00,
2013-02-15 08:22:00,22.0,18.7,29.95,ESE,102,0.0,0.0,87,0.00,SCT,,0.00,WeatherDisplay:10.37,2013-02-15 13:22:00,
2013-02-15 08:27:00,21.6,18.3,29.95,ESE,102,0.0,0.0,87,0.00,SCT,,0.00,WeatherDisplay:10.37,2013-02-15 13:27:00,
2013-02-15 08:32:00,22.2,18.9,29.95,ESE,102,0.0,0.0,87,0.00,SCT,,0.00,WeatherDisplay:10.37,2013-02-15 13:32:00,
2013-02-15 08:37:00,22.5,19.2,29.95,ESE,102,0.0,0.0,87,0.00,SCT,,0.00,WeatherDisplay:10.37,2013-02-15 13:37:00,
2013-02-15 08:42:00,22.5,19.2,29.95,ESE,102,0.0,0.0,87,0.00,SCT,,0.00,WeatherDisplay:10.37,2013-02-15 13:42:00,
2013-02-15 08:47:00,23.4,20.1,29.95,ESE,102,0.0,0.0,87,0.00,SCT,,0.00,WeatherDisplay:10.37,2013-02-15 13:47:00,
2013-02-15 08:52:00,24.6,21.3,29.95,ESE,102,0.0,0.0,87,0.00,SCT,,0.00,WeatherDisplay:10.37,2013-02-15 13:52:00,
2013-02-15 08:57:00,24.8,21.5,29.95,ESE,102,0.0,0.0,87,0.00,SCT,,0.00,WeatherDisplay:10.37,2013-02-15 13:57:00,
2013-02-15 09:02:00,25.8,21.6,29.96,ESE,102,0.0,0.0,84,0.00,FEW,,0.00,WeatherDisplay:10.37,2013-02-15 14:02:00,
2013-02-15 09:07:00,26.3,22.1,29.96,ESE,102,0.0,0.0,84,0.00,FEW,,0.00,WeatherDisplay:10.37,2013-02-15 14:07:00,
2013-02-15 09:12:00,26.7,22.5,29.96,ESE,102,0.0,0.0,84,0.00,FEW,,0.00,WeatherDisplay:10.37,2013-02-15 14:12:00,
2013-02-15 09:17:00,27.7,23.5,29.96,ESE,102,0.0,0.0,84,0.00,FEW,,0.00,WeatherDisplay:10.37,2013-02-15 14:17:00,
2013-02-15 09:23:00,27.7,23.5,29.96,ESE,102,0.0,0.0,84,0.00,CLR,,0.00,WeatherDisplay:10.37,2013-02-15 14:23:00,
2013-02-15 09:28:00,28.8,24.6,29.96,ESE,102,0.0,0.0,84,0.00,FEW,,0.00,WeatherDisplay:10.37,2013-02-15 14:28:00,
2013-02-15 09:33:00,29.6,25.4,29.96,ESE,102,0.0,0.0,84,0.00,FEW,,0.00,WeatherDisplay:10.37,2013-02-15 14:33:00,
2013-02-15 09:38:00,29.3,25.1,29.96,ESE,102,0.0,0.0,84,0.00,FEW,,0.00,WeatherDisplay:10.37,2013-02-15 14:38:00,
2013-02-15 09:43:00,29.3,25.1,29.96,ESE,102,0.0,0.1,84,0.00,FEW,,0.00,WeatherDisplay:10.37,2013-02-15 14:43:00,
2013-02-15 09:48:00,30.0,25.8,29.96,ESE,102,0.0,0.0,84,0.00,FEW,,0.00,WeatherDisplay:10.37,2013-02-15 14:48:00,
2013-02-15 09:53:00,30.9,26.6,29.96,ESE,102,0.0,0.0,84,0.00,FEW,,0.00,WeatherDisplay:10.37,2013-02-15 14:53:00,
2013-02-15 09:58:00,31.7,27.4,29.96,ESE,102,0.0,0.0,84,0.00,FEW,,0.00,WeatherDisplay:10.37,2013-02-15 14:58:00,
2013-02-15 10:03:00,32.6,28.3,29.96,ESE,102,0.0,0.0,84,0.00,FEW,,0.00,WeatherDisplay:10.37,2013-02-15 15:03:00,
2013-02-15 10:08:00,32.5,28.2,29.96,ESE,102,0.0,0.0,84,0.00,FEW,,0.00,WeatherDisplay:10.37,2013-02-15 15:08:00,
2013-02-15 10:13:00,33.0,27.8,29.95,ESE,102,0.0,0.0,81,0.00,CLR,,0.00,WeatherDisplay:10.37,2013-02-15 15:13:00,
2013-02-15 10:18:00,33.8,28.6,29.95,ESE,102,0.0,0.0,81,0.00,CLR,,0.00,WeatherDisplay:10.37,2013-02-15 15:18:00,
2013-02-15 10:23:00,34.2,29.0,29.95,ESE,102,0.0,0.0,81,0.00,CLR,,0.00,WeatherDisplay:10.37,2013-02-15 15:23:00,
2013-02-15 10:28:00,34.5,29.3,29.95,ESE,102,0.0,0.0,81,0.00,CLR,,0.00,WeatherDisplay:10.37,2013-02-15 15:28:00,
2013-02-15 10:33:00,33.8,28.6,29.95,ESE,102,1.1,0.0,81,0.00,CLR,,0.00,WeatherDisplay:10.37,2013-02-15 15:33:00,
2013-02-15 10:38:00,34.7,29.5,29.95,ESE,102,1.1,0.0,81,0.00,CLR,,0.00,WeatherDisplay:10.37,2013-02-15 15:38:00,
2013-02-15 10:43:00,35.3,30.1,29.95,ESE,102,1.1,0.0,81,0.00,CLR,,0.00,WeatherDisplay:10.37,2013-02-15 15:43:00,
2013-02-15 10:48:00,36.2,30.9,29.95,ESE,102,0.0,0.0,81,0.00,CLR,,0.00,WeatherDisplay:10.37,2013-02-15 15:48:00,
2013-02-15 10:53:00,36.1,30.8,29.95,ESE,102,1.1,1.1,81,0.00,CLR,,0.00,WeatherDisplay:10.37,2013-02-15 15:53:00,
2013-02-15 10:58:00,37.0,31.7,29.95,ESE,102,0.0,0.0,81,0.00,CLR,,0.00,WeatherDisplay:10.37,2013-02-15 15:58:00,
2013-02-15 11:03:00,37.5,32.2,29.95,ESE,102,0.0,0.1,81,0.00,CLR,,0.00,WeatherDisplay:10.37,2013-02-15 16:03:00,
2013-02-15 11:08:00,37.8,32.5,29.95,ESE,102,0.0,0.0,81,0.00,CLR,,0.00,WeatherDisplay:10.37,2013-02-15 16:08:00,
2013-02-15 11:13:00,39.1,29.8,29.94,ESE,102,1.1,0.0,69,0.00,CLR,,0.00,WeatherDisplay:10.37,2013-02-15 16:13:00,
2013-02-15 11:18:00,39.3,30.0,29.94,ESE,103,1.1,0.0,69,0.00,CLR,,0.00,WeatherDisplay:10.37,2013-02-15 16:18:00,
2013-02-15 11:23:00,39.7,30.4,29.94,ESE,103,1.1,0.0,69,0.00,CLR,,0.00,WeatherDisplay:10.37,2013-02-15 16:23:00,
2013-02-15 11:28:00,40.0,30.6,29.94,SSW,199,2.3,2.3,69,0.00,CLR,,0.00,WeatherDisplay:10.37,2013-02-15 16:28:00,
2013-02-15 11:33:00,40.7,31.3,29.94,South,177,0.0,0.1,69,0.00,CLR,,0.00,WeatherDisplay:10.37,2013-02-15 16:33:00,
2013-02-15 11:38:00,40.8,31.4,29.94,South,178,0.0,0.0,69,0.00,CLR,,0.00,WeatherDisplay:10.37,2013-02-15 16:38:00,
2013-02-15 11:43:00,41.1,31.7,29.94,SSW,193,1.1,1.1,69,0.00,CLR,,0.00,WeatherDisplay:10.37,2013-02-15 16:43:00,
2013-02-15 11:48:00,40.8,31.4,29.94,SSW,193,1.1,0.0,69,0.00,CLR,,0.00,WeatherDisplay:10.37,2013-02-15 16:48:00,
2013-02-15 11:53:00,42.0,32.6,29.94,SSW,193,0.0,0.0,69,0.00,CLR,,0.00,WeatherDisplay:10.37,2013-02-15 16:53:00,
2013-02-15 11:58:00,41.1,31.7,29.94,SSW,193,2.3,2.3,69,0.00,CLR,,0.00,WeatherDisplay:10.37,2013-02-15 16:58:00,
2013-02-15 12:03:00,41.9,32.5,29.94,SSW,193,2.3,2.3,69,0.00,CLR,,0.00,WeatherDisplay:10.37,2013-02-15 17:03:00,
2013-02-15 12:08:00,42.5,33.0,29.94,SSW,193,1.1,1.1,69,0.00,CLR,,0.00,WeatherDisplay:10.37,2013-02-15 17:08:00,
2013-02-15 12:13:00,42.6,29.3,29.90,SSW,193,3.5,3.5,59,0.00,CLR,,0.00,WeatherDisplay:10.37,2013-02-15 17:13:00,
2013-02-15 12:18:00,42.8,29.5,29.90,SSW,194,0.0,0.0,59,0.00,CLR,,0.00,WeatherDisplay:10.37,2013-02-15 17:18:00,
2013-02-15 12:23:00,43.3,29.9,29.90,SSW,194,0.0,0.0,59,0.00,CLR,,0.00,WeatherDisplay:10.37,2013-02-15 17:23:00,
2013-02-15 12:28:00,43.8,30.4,29.90,SSW,194,0.0,0.6,59,0.00,CLR,,0.00,WeatherDisplay:10.37,2013-02-15 17:28:00,
2013-02-15 12:33:00,43.1,29.7,29.90,SSW,196,3.5,3.5,59,0.00,CLR,,0.00,WeatherDisplay:10.37,2013-02-15 17:33:00,
2013-02-15 12:38:00,43.6,30.2,29.90,SSW,196,0.0,0.0,59,0.00,CLR,,0.00,WeatherDisplay:10.37,2013-02-15 17:38:00,
2013-02-15 12:43:00,44.1,30.7,29.90,SSW,196,0.0,0.0,59,0.00,CLR,,0.00,WeatherDisplay:10.37,2013-02-15 17:43:00,
2013-02-15 12:48:00,43.5,30.1,29.90,SSW,196,1.1,1.1,59,0.00,CLR,,0.00,WeatherDisplay:10.37,2013-02-15 17:48:00,
2013-02-15 12:53:00,43.0,29.6,29.90,SSW,198,2.3,2.3,59,0.00,CLR,,0.00,WeatherDisplay:10.37,2013-02-15 17:53:00,
2013-02-15 12:58:00,43.7,30.3,29.90,SSW,200,1.1,1.1,59,0.00,CLR,,0.00,WeatherDisplay:10.37,2013-02-15 17:58:00,
2013-02-15 13:03:00,43.3,29.9,29.90,SSW,200,1.1,1.1,59,0.00,CLR,,0.00,WeatherDisplay:10.37,2013-02-15 18:03:00,
2013-02-15 13:08:00,43.8,30.4,29.90,SSW,200,0.0,0.1,59,0.00,CLR,,0.00,WeatherDisplay:10.37,2013-02-15 18:08:00,
2013-02-15 13:13:00,42.9,23.0,29.88,SSW,201,1.1,0.0,45,0.00,CLR,,0.00,WeatherDisplay:10.37,2013-02-15 18:13:00,
2013-02-15 13:18:00,44.3,24.3,29.88,SSW,201,2.3,2.3,45,0.00,CLR,,0.00,WeatherDisplay:10.37,2013-02-15 18:18:00,
2013-02-15 13:23:00,43.8,23.8,29.88,SSW,201,2.0,2.0,45,0.00,CLR,,0.00,WeatherDisplay:10.37,2013-02-15 18:23:00,
2013-02-15 13:28:00,43.9,23.9,29.88,SSW,205,3.5,3.5,45,0.00,CLR,,0.00,WeatherDisplay:10.37,2013-02-15 18:28:00,
2013-02-15 13:33:00,43.5,23.5,29.88,SSW,204,2.3,2.3,45,0.00,CLR,,0.00,WeatherDisplay:10.37,2013-02-15 18:33:00,
2013-02-15 13:38:00,43.4,23.4,29.88,SSW,211,1.1,1.1,45,0.00,CLR,,0.00,WeatherDisplay:10.37,2013-02-15 18:38:00,
2013-02-15 13:43:00,45.3,25.2,29.88,SSW,211,0.0,0.0,45,0.00,CLR,,0.00,WeatherDisplay:10.37,2013-02-15 18:43:00,
2013-02-15 13:48:00,45.7,25.5,29.88,SSW,211,0.0,0.4,45,0.00,CLR,,0.00,WeatherDisplay:10.37,2013-02-15 18:48:00,
2013-02-15 13:53:00,45.5,25.4,29.88,SE,146,2.3,2.3,45,0.00,CLR,,0.00,WeatherDisplay:10.37,2013-02-15 18:53:00,
2013-02-15 13:58:00,45.5,25.4,29.88,SSE,163,3.5,3.5,45,0.00,CLR,,0.00,WeatherDisplay:10.37,2013-02-15 18:58:00,
2013-02-15 14:03:00,44.6,24.5,29.88,South,177,2.3,2.3,45,0.00,CLR,,0.00,WeatherDisplay:10.37,2013-02-15 19:03:00,
2013-02-15 14:08:00,45.3,25.2,29.88,SSE,166,2.0,2.0,45,0.00,CLR,,0.00,WeatherDisplay:10.37,2013-02-15 19:08:00,
2013-02-15 14:13:00,45.7,22.7,29.87,SW,220,2.3,2.3,40,0.00,CLR,,0.00,WeatherDisplay:10.37,2013-02-15 19:13:00,
2013-02-15 14:18:00,46.4,23.4,29.87,South,174,1.1,1.1,40,0.00,CLR,,0.00,WeatherDisplay:10.37,2013-02-15 19:18:00,
2013-02-15 14:23:00,45.1,22.2,29.87,South,175,1.1,0.0,40,0.00,CLR,,0.00,WeatherDisplay:10.37,2013-02-15 19:23:00,
2013-02-15 14:28:00,44.6,21.7,29.87,SSW,197,3.5,3.5,40,0.00,CLR,,0.00,WeatherDisplay:10.37,2013-02-15 19:28:00,
2013-02-15 14:33:00,45.4,22.5,29.87,WNW,288,6.9,6.9,40,0.00,CLR,,0.00,WeatherDisplay:10.37,2013-02-15 19:33:00,
2013-02-15 14:38:00,45.6,22.6,29.87,WSW,242,3.5,3.5,40,0.00,CLR,,0.00,WeatherDisplay:10.37,2013-02-15 19:38:00,
2013-02-15 14:43:00,45.8,22.8,29.87,SW,230,1.1,1.1,40,0.00,CLR,,0.00,WeatherDisplay:10.37,2013-02-15 19:43:00,
2013-02-15 14:48:00,44.5,21.6,29.87,NW,306,2.3,2.3,40,0.00,CLR,,0.00,WeatherDisplay:10.37,2013-02-15 19:48:00,
2013-02-15 14:53:00,45.5,22.5,29.87,West,277,3.0,3.0,40,0.00,CLR,,0.00,WeatherDisplay:10.37,2013-02-15 19:53:00,
2013-02-15 14:58:00,45.9,22.9,29.87,WSW,252,1.1,1.1,40,0.00,CLR,,0.00,WeatherDisplay:10.37,2013-02-15 19:58:00,
2013-02-15 15:03:00,44.6,21.7,29.87,WSW,252,1.1,1.1,40,0.00,CLR,,0.00,WeatherDisplay:10.37,2013-02-15 20:03:00,
2013-02-15 15:08:00,44.6,21.7,29.87,SSW,211,3.5,3.5,40,0.00,CLR,,0.00,WeatherDisplay:10.37,2013-02-15 20:08:00,
2013-02-15 15:13:00,44.5,21.6,29.87,SW,218,1.1,1.1,40,0.00,CLR,,0.00,WeatherDisplay:10.37,2013-02-15 20:13:00,
2013-02-15 15:18:00,44.8,21.9,29.87,WSW,243,4.0,4.0,40,0.00,CLR,,0.00,WeatherDisplay:10.37,2013-02-15 20:18:00,
2013-02-15 15:23:00,44.8,21.9,29.87,SSW,212,3.5,3.5,40,0.00,CLR,,0.00,WeatherDisplay:10.37,2013-02-15 20:23:00,
2013-02-15 15:28:00,44.6,21.7,29.87,SW,228,3.5,3.5,40,0.00,CLR,,0.00,WeatherDisplay:10.37,2013-02-15 20:28:00,
2013-02-15 15:33:00,44.5,21.6,29.87,WSW,238,2.3,2.3,40,0.00,CLR,,0.00,WeatherDisplay:10.37,2013-02-15 20:33:00,
2013-02-15 15:38:00,44.4,21.6,29.87,WNW,294,2.3,2.3,40,0.00,CLR,,0.00,WeatherDisplay:10.37,2013-02-15 20:38:00,
2013-02-15 15:43:00,43.9,21.1,29.87,SSW,199,3.5,3.5,40,0.00,CLR,,0.00,WeatherDisplay:10.37,2013-02-15 20:43:00,
2013-02-15 15:48:00,43.4,20.7,29.87,South,177,2.3,2.3,40,0.00,CLR,,0.00,WeatherDisplay:10.37,2013-02-15 20:48:00,
2013-02-15 15:53:00,43.3,20.6,29.87,South,180,2.0,2.0,40,0.00,CLR,,0.00,WeatherDisplay:10.37,2013-02-15 20:53:00,
2013-02-15 15:58:00,43.3,20.6,29.87,South,181,1.1,1.1,40,0.00,CLR,,0.00,WeatherDisplay:10.37,2013-02-15 20:58:00,
2013-02-15 16:03:00,42.8,20.1,29.87,South,181,2.0,2.0,40,0.00,CLR,,0.00,WeatherDisplay:10.37,2013-02-15 21:03:00,
2013-02-15 16:08:00,43.3,20.6,29.87,South,189,1.1,0.0,40,0.00,CLR,,0.00,WeatherDisplay:10.37,2013-02-15 21:08:00,
2013-02-15 16:13:00,43.3,19.4,29.87,South,189,1.1,1.1,38,0.00,CLR,,0.00,WeatherDisplay:10.37,2013-02-15 21:13:00,
2013-02-15 16:18:00,42.6,18.7,29.87,South,189,1.1,1.1,38,0.00,CLR,,0.00,WeatherDisplay:10.37,2013-02-15 21:18:00,
2013-02-15 16:23:00,42.9,19.0,29.87,South,189,1.1,0.0,38,0.00,CLR,,0.00,WeatherDisplay:10.37,2013-02-15 21:23:00,
2013-02-15 16:28:00,42.8,18.9,29.87,South,189,0.0,0.1,38,0.00,CLR,,0.00,WeatherDisplay:10.37,2013-02-15 21:28:00,
2013-02-15 16:33:00,42.3,18.5,29.87,South,189,1.1,1.1,38,0.00,CLR,,0.00,WeatherDisplay:10.37,2013-02-15 21:33:00,
2013-02-15 16:38:00,42.4,18.6,29.87,South,189,1.1,1.1,38,0.00,CLR,,0.00,WeatherDisplay:10.37,2013-02-15 21:38:00,
2013-02-15 16:43:00,42.2,18.4,29.87,South,190,1.1,1.1,38,0.00,CLR,,0.00,WeatherDisplay:10.37,2013-02-15 21:43:00,
2013-02-15 16:48:00,42.1,18.3,29.87,South,189,0.0,0.1,38,0.00,CLR,,0.00,WeatherDisplay:10.37,2013-02-15 21:48:00,
2013-02-15 16:53:00,41.9,18.1,29.87,South,189,0.0,0.0,38,0.00,CLR,,0.00,WeatherDisplay:10.37,2013-02-15 21:53:00,
2013-02-15 16:58:00,41.5,17.7,29.87,South,189,0.0,0.0,38,0.00,CLR,,0.00,WeatherDisplay:10.37,2013-02-15 21:58:00,
2013-02-15 17:03:00,41.2,17.5,29.87,South,189,1.1,0.0,38,0.00,CLR,,0.00,WeatherDisplay:10.37,2013-02-15 22:03:00,
2013-02-15 17:08:00,41.2,17.5,29.87,South,189,1.1,1.1,38,0.00,CLR,,0.00,WeatherDisplay:10.37,2013-02-15 22:08:00,
2013-02-15 17:13:00,40.9,18.4,29.87,South,189,2.3,0.0,40,0.00,CLR,,0.00,WeatherDisplay:10.37,2013-02-15 22:13:00,
2013-02-15 17:18:00,40.8,18.3,29.87,South,190,0.0,0.1,40,0.00,CLR,,0.00,WeatherDisplay:10.37,2013-02-15 22:18:00,
2013-02-15 17:23:00,40.4,18.0,29.87,South,190,0.0,0.1,40,0.00,CLR,,0.00,WeatherDisplay:10.37,2013-02-15 22:23:00,
2013-02-15 17:28:00,40.0,17.6,29.87,South,190,1.1,0.0,40,0.00,CLR,,0.00,WeatherDisplay:10.37,2013-02-15 22:28:00,
2013-02-15 17:33:00,40.1,17.7,29.87,South,190,0.0,0.0,40,0.00,CLR,,0.00,WeatherDisplay:10.37,2013-02-15 22:33:00,
2013-02-15 17:38:00,39.8,17.4,29.87,South,190,1.1,0.0,40,0.00,CLR,,0.00,WeatherDisplay:10.37,2013-02-15 22:38:00,
2013-02-15 17:43:00,38.8,16.5,29.87,South,190,0.0,0.1,40,0.00,CLR,,0.00,WeatherDisplay:10.37,2013-02-15 22:43:00,
2013-02-15 17:48:00,39.0,16.7,29.87,South,190,1.1,0.0,40,0.00,CLR,,0.00,WeatherDisplay:10.37,2013-02-15 22:48:00,
2013-02-15 17:53:00,39.1,16.8,29.87,South,190,1.1,1.1,40,0.00,CLR,,0.00,WeatherDisplay:10.37,2013-02-15 22:53:00,
2013-02-15 17:58:00,38.7,16.4,29.87,South,190,1.1,0.0,40,0.00,CLR,,0.00,WeatherDisplay:10.37,2013-02-15 22:58:00,
2013-02-15 18:03:00,38.6,16.3,29.87,South,190,0.0,0.0,40,0.00,CLR,,0.00,WeatherDisplay:10.37,2013-02-15 23:03:00,
2013-02-15 18:08:00,38.3,16.1,29.87,South,190,0.0,0.0,40,0.00,CLR,,0.00,WeatherDisplay:10.37,2013-02-15 23:08:00,
2013-02-15 18:13:00,38.1,22.9,29.89,South,190,1.1,0.0,54,0.00,SCT,,0.00,WeatherDisplay:10.37,2013-02-15 23:13:00,
2013-02-15 18:18:00,38.4,23.2,29.89,SSW,204,0.0,0.4,54,0.00,SCT,,0.00,WeatherDisplay:10.37,2013-02-15 23:18:00,
2013-02-15 18:23:00,37.6,22.4,29.89,SSW,205,0.0,0.0,54,0.00,SCT,,0.00,WeatherDisplay:10.37,2013-02-15 23:23:00,
2013-02-15 18:28:00,36.7,21.6,29.89,SSW,206,0.0,0.0,54,0.00,SCT,,0.00,WeatherDisplay:10.37,2013-02-15 23:28:00,
2013-02-15 18:33:00,36.1,21.0,29.89,SSW,205,0.0,0.0,54,0.00,SCT,,0.00,WeatherDisplay:10.37,2013-02-15 23:33:00,
2013-02-15 18:38:00,36.3,21.2,29.89,SSW,205,1.1,0.0,54,0.00,SCT,,0.00,WeatherDisplay:10.37,2013-02-15 23:38:00,
2013-02-15 18:43:00,35.9,20.9,29.89,SSW,205,0.0,0.0,54,0.00,SCT,,0.00,WeatherDisplay:10.37,2013-02-15 23:43:00,
2013-02-15 18:48:00,36.0,20.9,29.89,SSW,205,0.0,0.1,54,0.00,SCT,,0.00,WeatherDisplay:10.37,2013-02-15 23:48:00,
2013-02-15 18:53:00,35.6,20.6,29.89,SSW,206,0.0,0.0,54,0.00,SCT,,0.00,WeatherDisplay:10.37,2013-02-15 23:53:00,
2013-02-15 18:58:00,35.2,20.2,29.89,SSW,205,0.0,0.0,54,0.00,SCT,,0.00,WeatherDisplay:10.37,2013-02-15 23:58:00,
2013-02-15 19:03:00,34.9,19.9,29.89,SSW,205,1.1,0.0,54,0.00,SCT,,0.00,WeatherDisplay:10.37,2013-02-16 00:03:00,
2013-02-15 19:08:00,34.1,19.2,29.89,SSW,205,0.0,0.0,54,0.00,SCT,,0.00,WeatherDisplay:10.37,2013-02-16 00:08:00,
2013-02-15 19:13:00,33.8,17.1,29.91,SSW,205,0.0,0.0,50,0.00,SCT,,0.00,WeatherDisplay:10.37,2013-02-16 00:13:00,
2013-02-15 19:18:00,33.9,17.2,29.91,SSW,205,0.0,0.0,50,0.00,SCT,,0.00,WeatherDisplay:10.37,2013-02-16 00:18:00,
2013-02-15 19:23:00,33.8,17.1,29.91,SSW,205,0.0,0.0,50,0.00,SCT,,0.00,WeatherDisplay:10.37,2013-02-16 00:23:00,
2013-02-15 19:28:00,32.7,16.1,29.91,SSW,206,0.0,0.0,50,0.00,SCT,,0.00,WeatherDisplay:10.37,2013-02-16 00:28:00,
2013-02-15 19:33:00,33.6,16.9,29.91,SSW,205,0.0,0.0,50,0.00,SCT,,0.00,WeatherDisplay:10.37,2013-02-16 00:33:00,
2013-02-15 19:38:00,33.4,16.7,29.91,SSW,205,0.0,0.2,50,0.00,SCT,,0.00,WeatherDisplay:10.37,2013-02-16 00:38:00,
2013-02-15 19:43:00,33.6,16.9,29.91,SSW,205,0.0,0.0,50,0.00,SCT,,0.00,WeatherDisplay:10.37,2013-02-16 00:43:00,
2013-02-15 19:48:00,32.8,16.2,29.91,SSW,205,0.0,0.0,50,0.00,SCT,,0.00,WeatherDisplay:10.37,2013-02-16 00:48:00,
2013-02-15 19:53:00,33.2,16.5,29.91,SSW,205,0.0,0.0,50,0.00,SCT,,0.00,WeatherDisplay:10.37,2013-02-16 00:53:00,
2013-02-15 19:58:00,32.7,16.1,29.91,SSW,205,0.0,0.0,50,0.00,SCT,,0.00,WeatherDisplay:10.37,2013-02-16 00:58:00,
2013-02-15 20:04:00,31.2,14.7,29.91,SSW,205,0.0,0.0,50,0.00,SCT,,0.00,WeatherDisplay:10.37,2013-02-16 01:04:00,
2013-02-15 20:09:00,31.2,14.7,29.91,SSW,205,0.0,0.0,50,0.00,SCT,,0.00,WeatherDisplay:10.37,2013-02-16 01:09:00,
2013-02-15 20:14:00,31.6,18.9,29.92,SSW,205,1.1,0.0,59,0.00,FEW,,0.00,WeatherDisplay:10.37,2013-02-16 01:14:00,
2013-02-15 20:19:00,31.7,19.0,29.92,SSW,205,0.0,0.0,59,0.00,FEW,,0.00,WeatherDisplay:10.37,2013-02-16 01:19:00,
2013-02-15 20:24:00,31.7,19.0,29.92,SSW,205,0.0,0.0,59,0.00,FEW,,0.00,WeatherDisplay:10.37,2013-02-16 01:24:00,
2013-02-15 20:29:00,31.0,18.3,29.92,SSW,205,0.0,0.0,59,0.00,FEW,,0.00,WeatherDisplay:10.37,2013-02-16 01:29:00,
2013-02-15 20:34:00,30.8,18.1,29.92,SSW,205,0.0,0.0,59,0.00,FEW,,0.00,WeatherDisplay:10.37,2013-02-16 01:34:00,
2013-02-15 20:39:00,30.7,18.1,29.92,SSW,205,0.0,0.0,59,0.00,FEW,,0.00,WeatherDisplay:10.37,2013-02-16 01:39:00,
2013-02-15 20:44:00,29.1,16.5,29.92,SSW,205,0.0,0.0,59,0.00,FEW,,0.00,WeatherDisplay:10.37,2013-02-16 01:44:00,
2013-02-15 20:49:00,29.5,16.9,29.92,SSW,205,0.0,0.0,59,0.00,FEW,,0.00,WeatherDisplay:10.37,2013-02-16 01:49:00,
2013-02-15 20:54:00,29.8,17.2,29.92,SSW,205,0.0,0.0,59,0.00,FEW,,0.00,WeatherDisplay:10.37,2013-02-16 01:54:00,
2013-02-15 20:59:00,29.6,17.0,29.92,SSW,205,0.0,0.0,59,0.00,FEW,,0.00,WeatherDisplay:10.37,2013-02-16 01:59:00,
2013-02-15 21:04:00,29.7,21.8,29.93,SSW,205,0.0,0.0,72,0.00,CLR,,0.00,WeatherDisplay:10.37,2013-02-16 02:04:00,
2013-02-15 21:09:00,30.2,22.3,29.93,SSW,206,0.0,0.0,72,0.00,CLR,,0.00,WeatherDisplay:10.37,2013-02-16 02:09:00,
2013-02-15 21:14:00,30.4,22.4,29.93,SSW,205,0.0,0.0,72,0.00,CLR,,0.00,WeatherDisplay:10.37,2013-02-16 02:14:00,
2013-02-15 21:19:00,28.5,20.6,29.93,SSW,206,0.0,0.0,72,0.00,CLR,,0.00,WeatherDisplay:10.37,2013-02-16 02:19:00,
2013-02-15 21:24:00,29.9,22.0,29.93,SSW,205,0.0,0.0,72,0.00,CLR,,0.00,WeatherDisplay:10.37,2013-02-16 02:24:00,
2013-02-15 21:29:00,29.8,21.9,29.93,SSW,205,0.0,0.0,72,0.00,CLR,,0.00,WeatherDisplay:10.37,2013-02-16 02:29:00,
2013-02-15 21:34:00,29.3,21.4,29.93,SSW,205,0.0,0.0,72,0.00,CLR,,0.00,WeatherDisplay:10.37,2013-02-16 02:34:00,
2013-02-15 21:39:00,28.7,20.8,29.93,SSW,205,0.0,0.0,72,0.00,CLR,,0.00,WeatherDisplay:10.37,2013-02-16 02:39:00,
2013-02-15 21:44:00,28.6,20.7,29.93,SSW,205,0.0,0.0,72,0.00,CLR,,0.00,WeatherDisplay:10.37,2013-02-16 02:44:00,
2013-02-15 21:49:00,29.3,21.4,29.93,SSW,205,0.0,0.0,72,0.00,CLR,,0.00,WeatherDisplay:10.37,2013-02-16 02:49:00,
2013-02-15 21:54:00,29.4,21.5,29.93,SSW,205,0.0,0.0,72,0.00,CLR,,0.00,WeatherDisplay:10.37,2013-02-16 02:54:00,
2013-02-15 21:59:00,29.4,21.5,29.93,SSW,205,0.0,0.0,72,0.00,CLR,,0.00,WeatherDisplay:10.37,2013-02-16 02:59:00,
2013-02-15 22:04:00,29.5,24.4,29.93,SSW,205,0.0,0.0,81,0.00,BKN,,0.00,WeatherDisplay:10.37,2013-02-16 03:04:00,
2013-02-15 22:09:00,28.9,23.8,29.93,SSW,205,0.0,0.0,81,0.00,BKN,,0.00,WeatherDisplay:10.37,2013-02-16 03:09:00,
2013-02-15 22:14:00,28.8,23.7,29.93,SSW,205,0.0,0.0,81,0.00,BKN,,0.00,WeatherDisplay:10.37,2013-02-16 03:14:00,
2013-02-15 22:19:00,29.0,23.9,29.93,SSW,205,0.0,0.0,81,0.00,BKN,,0.00,WeatherDisplay:10.37,2013-02-16 03:19:00,
2013-02-15 22:24:00,28.6,23.5,29.93,SSW,205,0.0,0.0,81,0.00,BKN,,0.00,WeatherDisplay:10.37,2013-02-16 03:24:00,
2013-02-15 22:29:00,28.8,23.7,29.93,SSW,205,0.0,0.0,81,0.00,BKN,,0.00,WeatherDisplay:10.37,2013-02-16 03:29:00,
2013-02-15 22:34:00,28.6,23.5,29.93,SSW,205,0.0,0.0,81,0.00,BKN,,0.00,WeatherDisplay:10.37,2013-02-16 03:34:00,
2013-02-15 22:39:00,28.6,23.5,29.93,SSW,205,0.0,0.0,81,0.00,BKN,,0.00,WeatherDisplay:10.37,2013-02-16 03:39:00,
2013-02-15 22:44:00,28.6,23.5,29.93,SSW,205,0.0,0.0,81,0.00,BKN,,0.00,WeatherDisplay:10.37,2013-02-16 03:44:00,
2013-02-15 22:49:00,28.4,23.3,29.93,SSW,205,0.0,0.0,81,0.00,BKN,,0.00,WeatherDisplay:10.37,2013-02-16 03:49:00,
2013-02-15 22:54:00,29.0,23.9,29.93,SSW,205,0.0,0.0,81,0.00,BKN,,0.00,WeatherDisplay:10.37,2013-02-16 03:54:00,
2013-02-15 22:59:00,28.9,23.8,29.93,SSW,206,0.0,0.0,81,0.00,BKN,,0.00,WeatherDisplay:10.37,2013-02-16 03:59:00,
2013-02-15 23:04:00,28.6,23.5,29.93,SSW,205,0.0,0.0,81,0.00,OVC,,0.00,WeatherDisplay:10.37,2013-02-16 04:04:00,
2013-02-15 23:09:00,28.6,23.5,29.93,SSW,205,0.0,0.0,81,0.00,OVC,,0.00,WeatherDisplay:10.37,2013-02-16 04:09:00,
2013-02-15 23:14:00,28.4,23.3,29.93,SSW,205,0.0,0.0,81,0.00,OVC,,0.00,WeatherDisplay:10.37,2013-02-16 04:14:00,
2013-02-15 23:19:00,28.3,23.2,29.93,SSW,205,0.0,0.0,81,0.00,OVC,,0.00,WeatherDisplay:10.37,2013-02-16 04:19:00,
2013-02-15 23:24:00,28.3,23.2,29.93,SSW,205,0.0,0.0,81,0.00,OVC,,0.00,WeatherDisplay:10.37,2013-02-16 04:24:00,
2013-02-15 23:29:00,28.5,23.4,29.93,SSW,205,0.0,0.0,81,0.00,OVC,,0.00,WeatherDisplay:10.37,2013-02-16 04:29:00,
2013-02-15 23:34:00,28.3,23.2,29.93,SSW,205,0.0,0.0,81,0.00,OVC,,0.00,WeatherDisplay:10.37,2013-02-16 04:34:00,
2013-02-15 23:39:00,28.3,23.2,29.93,SSW,205,0.0,0.0,81,0.00,OVC,,0.00,WeatherDisplay:10.37,2013-02-16 04:39:00,
2013-02-15 23:44:00,28.4,23.3,29.93,SSW,205,0.0,0.0,81,0.00,OVC,,0.00,WeatherDisplay:10.37,2013-02-16 04:44:00,
2013-02-15 23:49:00,27.9,22.8,29.93,SSW,205,0.0,0.0,81,0.00,OVC,,0.00,WeatherDisplay:10.37,2013-02-16 04:49:00,
2013-02-15 23:54:00,27.9,22.8,29.93,SSW,205,0.0,0.0,81,0.00,OVC,,0.00,WeatherDisplay:10.37,2013-02-16 04:54:00,
2013-02-15 23:59:00,28.0,22.9,29.93,SSW,205,0.0,0.0,81,0.00,OVC,,0.00,WeatherDisplay:10.37,2013-02-16 04:59:00,